Time,TemperatureF,DewpointF,PressureIn,WindDirection,WindDirectionDegrees,WindSpeedMPH,WindSpeedGustMPH,Humidity,HourlyPrecipIn,Conditions,Clouds,dailyrainin,SoftwareType,DateUTC
2013-03-06 00:01:00,37.3,31.0,29.00,NNW,341,1.0,15.0,79,0.00,,,0.00,weatherlink.com 1.10,2013-03-06 05:01:00,
2013-03-06 00:06:00,36.9,31.3,28.99,North,355,4.0,5.0,80,0.00,,,0.00,Wunderground v.1.15,2013-03-06 05:06:00,
2013-03-06 00:16:00,36.3,30.7,28.99,WNW,289,4.0,5.0,80,0.00,,,0.00,Wunderground v.1.15,2013-03-06 05:16:00,
2013-03-06 00:17:00,36.3,31.0,28.99,NW,319,7.0,13.0,80,0.00,,,0.00,weatherlink.com 1.10,2013-03-06 05:17:00,
2013-03-06 00:21:00,36.2,30.3,28.99,NNW,342,5.0,6.0,79,0.00,,,0.00,Wunderground v.1.15,2013-03-06 05:21:00,
2013-03-06 00:26:00,36.2,30.0,28.99,NW,319,6.0,6.0,78,0.00,,,0.00,Wunderground v.1.15,2013-03-06 05:26:00,
2013-03-06 00:31:00,36.4,29.2,28.99,West,269,6.0,6.0,75,0.00,,,0.00,Wunderground v.1.15,2013-03-06 05:31:00,
2013-03-06 00:36:00,36.5,29.0,28.99,NW,313,8.0,11.0,74,0.00,,,0.00,Wunderground v.1.15,2013-03-06 05:36:00,
2013-03-06 00:46:00,36.0,30.4,29.00,NNW,345,9.0,9.0,80,0.00,,,0.00,Wunderground v.1.15,2013-03-06 05:46:00,
2013-03-06 00:51:00,34.7,30.9,29.01,North,360,10.0,12.0,86,0.00,,,0.00,Wunderground v.1.15,2013-03-06 05:51:00,
2013-03-06 00:56:00,33.8,30.6,29.01,NW,317,8.0,12.0,88,0.00,,,0.00,Wunderground v.1.15,2013-03-06 05:56:00,
2013-03-06 01:02:00,33.3,30.1,29.00,NNW,338,6.0,6.0,88,0.00,,,0.00,Wunderground v.1.15,2013-03-06 06:02:00,
2013-03-06 01:11:00,33.1,29.7,29.00,NNW,343,3.0,3.0,87,0.00,,,0.00,Wunderground v.1.15,2013-03-06 06:11:00,
2013-03-06 01:17:00,33.2,29.0,29.01,NW,322,5.0,10.0,85,0.00,,,0.00,weatherlink.com 1.10,2013-03-06 06:17:00,
2013-03-06 01:26:00,33.5,27.4,29.01,NW,318,7.0,7.0,78,0.00,,,0.00,Wunderground v.1.15,2013-03-06 06:26:00,
2013-03-06 01:31:00,33.8,26.7,29.01,WNW,283,7.0,7.0,75,0.00,,,0.00,Wunderground v.1.15,2013-03-06 06:31:00,
2013-03-06 01:36:00,33.9,25.8,29.01,NNW,335,6.0,10.0,72,0.00,,,0.00,Wunderground v.1.15,2013-03-06 06:36:00,
2013-03-06 01:41:00,33.9,24.8,29.02,NNW,348,7.0,16.0,69,0.00,,,0.00,Wunderground v.1.15,2013-03-06 06:41:00,
2013-03-06 01:47:00,33.9,25.0,29.02,NW,321,9.0,19.0,69,0.00,,,0.00,weatherlink.com 1.10,2013-03-06 06:47:00,
2013-03-06 01:56:00,33.7,24.3,29.03,NW,308,5.0,12.0,68,0.00,,,0.00,Wunderground v.1.15,2013-03-06 06:56:00,
2013-03-06 02:02:00,33.8,24.0,29.02,NW,304,7.0,10.0,67,0.00,,,0.00,Wunderground v.1.15,2013-03-06 07:02:00,
2013-03-06 02:11:00,33.8,24.0,29.03,NNE,25,5.0,5.0,67,0.00,,,0.00,Wunderground v.1.15,2013-03-06 07:11:00,
2013-03-06 02:17:00,33.9,24.0,29.03,NNW,332,10.0,18.0,67,0.00,,,0.00,weatherlink.com 1.10,2013-03-06 07:17:00,
2013-03-06 02:26:00,33.7,23.5,29.03,NW,306,8.0,8.0,66,0.00,,,0.00,Wunderground v.1.15,2013-03-06 07:26:00,
2013-03-06 02:31:00,33.7,23.2,29.03,NW,319,8.0,8.0,65,0.00,,,0.00,Wunderground v.1.15,2013-03-06 07:31:00,
2013-03-06 02:36:00,33.6,23.4,29.03,NW,305,8.0,8.0,66,0.00,,,0.00,Wunderground v.1.15,2013-03-06 07:36:00,
2013-03-06 02:41:00,33.5,23.4,29.03,WNW,298,7.0,7.0,66,0.00,,,0.00,Wunderground v.1.15,2013-03-06 07:41:00,
2013-03-06 02:47:00,33.3,23.0,29.02,WNW,284,9.0,18.0,65,0.00,,,0.00,weatherlink.com 1.10,2013-03-06 07:47:00,
2013-03-06 02:56:00,33.3,22.8,29.02,NW,304,6.0,14.0,65,0.00,,,0.00,Wunderground v.1.15,2013-03-06 07:56:00,
2013-03-06 03:02:00,33.1,22.6,29.03,NNE,19,5.0,9.0,65,0.00,,,0.00,Wunderground v.1.15,2013-03-06 08:02:00,
2013-03-06 03:11:00,33.1,23.0,29.03,North,360,7.0,7.0,66,0.00,,,0.00,Wunderground v.1.15,2013-03-06 08:11:00,
2013-03-06 03:17:00,33.2,23.0,29.02,NW,311,4.0,14.0,66,0.00,,,0.00,weatherlink.com 1.10,2013-03-06 08:17:00,
2013-03-06 03:26:00,33.2,23.4,29.02,NNW,348,4.0,5.0,67,0.00,,,0.00,Wunderground v.1.15,2013-03-06 08:26:00,
2013-03-06 03:32:00,33.2,23.0,29.02,NW,309,5.0,18.0,66,0.00,,,0.00,weatherlink.com 1.10,2013-03-06 08:32:00,
2013-03-06 03:41:00,33.3,22.8,29.02,WSW,255,6.0,6.0,65,0.00,,,0.00,Wunderground v.1.15,2013-03-06 08:41:00,
2013-03-06 03:47:00,33.2,23.0,29.02,WNW,294,7.0,12.0,65,0.00,,,0.00,weatherlink.com 1.10,2013-03-06 08:47:00,
2013-03-06 03:56:00,33.2,23.1,29.02,North,360,6.0,6.0,66,0.00,,,0.00,Wunderground v.1.15,2013-03-06 08:56:00,
2013-03-06 04:02:00,33.3,23.2,29.02,NW,313,5.0,5.0,66,0.00,,,0.00,Wunderground v.1.15,2013-03-06 09:02:00,
2013-03-06 04:11:00,33.3,23.5,29.03,WNW,283,4.0,4.0,67,0.00,,,0.00,Wunderground v.1.15,2013-03-06 09:11:00,
2013-03-06 04:17:00,33.3,23.0,29.03,North,360,3.0,9.0,66,0.00,,,0.00,weatherlink.com 1.10,2013-03-06 09:17:00,
2013-03-06 04:26:00,33.4,23.6,29.04,WNW,286,5.0,6.0,67,0.00,,,0.00,Wunderground v.1.15,2013-03-06 09:26:00,
2013-03-06 04:32:00,33.4,23.0,29.04,NNW,328,11.0,18.0,67,0.00,,,0.00,weatherlink.com 1.10,2013-03-06 09:32:00,
2013-03-06 04:41:00,33.4,24.0,29.04,SSE,163,7.0,7.0,68,0.00,,,0.00,Wunderground v.1.15,2013-03-06 09:41:00,
2013-03-06 04:46:00,33.4,24.0,29.05,WSW,237,5.0,7.0,68,0.00,,,0.00,Wunderground v.1.15,2013-03-06 09:46:00,
2013-03-06 04:51:00,33.4,24.3,29.05,WNW,291,4.0,4.0,69,0.00,,,0.00,Wunderground v.1.15,2013-03-06 09:51:00,
2013-03-06 04:56:00,33.4,24.3,29.05,West,270,4.0,4.0,69,0.00,,,0.00,Wunderground v.1.15,2013-03-06 09:56:00,
2013-03-06 05:02:00,33.4,24.3,29.05,NNW,342,5.0,6.0,69,0.00,,,0.01,Wunderground v.1.15,2013-03-06 10:02:00,
2013-03-06 05:11:00,33.4,24.3,29.05,NNE,24,5.0,5.0,69,0.00,,,0.01,Wunderground v.1.15,2013-03-06 10:11:00,
2013-03-06 05:17:00,33.4,25.0,29.05,North,355,3.0,10.0,70,0.01,,,0.01,weatherlink.com 1.10,2013-03-06 10:17:00,
2013-03-06 05:26:00,33.4,24.7,29.06,NNE,16,4.0,6.0,70,0.00,,,0.01,Wunderground v.1.15,2013-03-06 10:26:00,
2013-03-06 05:31:00,33.5,24.8,29.06,WSW,249,4.0,4.0,70,0.00,,,0.01,Wunderground v.1.15,2013-03-06 10:31:00,
2013-03-06 05:41:00,33.5,24.8,29.07,NW,311,4.0,4.0,70,0.00,,,0.01,Wunderground v.1.15,2013-03-06 10:41:00,
2013-03-06 05:46:00,33.6,24.9,29.07,NW,318,6.0,6.0,70,0.00,,,0.01,Wunderground v.1.15,2013-03-06 10:46:00,
2013-03-06 05:51:00,33.6,25.2,29.07,North,355,7.0,7.0,71,0.00,,,0.01,Wunderground v.1.15,2013-03-06 10:51:00,
2013-03-06 05:56:00,33.6,25.2,29.07,NNW,332,6.0,7.0,71,0.00,,,0.01,Wunderground v.1.15,2013-03-06 10:56:00,
2013-03-06 06:02:00,33.6,25.2,29.08,WNW,292,5.0,6.0,71,0.00,,,0.01,Wunderground v.1.15,2013-03-06 11:02:00,
2013-03-06 06:11:00,33.6,25.5,29.08,NNW,330,4.0,6.0,72,0.00,,,0.01,Wunderground v.1.15,2013-03-06 11:11:00,
2013-03-06 06:16:00,33.7,25.3,29.08,NNW,336,4.0,6.0,71,0.00,,,0.01,Wunderground v.1.15,2013-03-06 11:16:00,
2013-03-06 06:21:00,33.7,25.3,29.08,NW,313,5.0,5.0,71,0.00,,,0.01,Wunderground v.1.15,2013-03-06 11:21:00,
2013-03-06 06:26:00,33.7,25.3,29.08,NW,324,5.0,5.0,71,0.00,,,0.01,Wunderground v.1.15,2013-03-06 11:26:00,
2013-03-06 06:31:00,33.8,25.4,29.09,North,360,5.0,8.0,71,0.00,,,0.01,Wunderground v.1.15,2013-03-06 11:31:00,
2013-03-06 06:36:00,33.8,25.4,29.09,NW,326,6.0,8.0,71,0.00,,,0.01,Wunderground v.1.15,2013-03-06 11:36:00,
2013-03-06 06:41:00,33.8,25.7,29.09,North,360,5.0,7.0,72,0.00,,,0.01,Wunderground v.1.15,2013-03-06 11:41:00,
2013-03-06 06:46:00,33.9,25.8,29.09,NNW,335,5.0,7.0,72,0.00,,,0.01,Wunderground v.1.15,2013-03-06 11:46:00,
2013-03-06 06:51:00,33.8,25.7,29.10,North,355,4.0,4.0,72,0.00,,,0.01,Wunderground v.1.15,2013-03-06 11:51:00,
2013-03-06 06:56:00,33.9,25.8,29.10,NNW,336,6.0,8.0,72,0.00,,,0.01,Wunderground v.1.15,2013-03-06 11:56:00,
2013-03-06 07:02:00,33.9,25.8,29.10,NNW,348,6.0,6.0,72,0.00,,,0.01,Wunderground v.1.15,2013-03-06 12:02:00,
2013-03-06 07:11:00,33.8,25.7,29.10,NW,319,6.0,6.0,72,0.00,,,0.01,Wunderground v.1.15,2013-03-06 12:11:00,
2013-03-06 07:16:00,33.8,25.7,29.10,NW,309,5.0,6.0,72,0.00,,,0.01,Wunderground v.1.15,2013-03-06 12:16:00,
2013-03-06 07:21:00,33.9,25.8,29.10,NNW,328,7.0,7.0,72,0.00,,,0.01,Wunderground v.1.15,2013-03-06 12:21:00,
2013-03-06 07:26:00,33.9,25.8,29.11,NNW,344,8.0,23.0,72,0.00,,,0.01,Wunderground v.1.15,2013-03-06 12:26:00,
2013-03-06 07:31:00,34.0,25.6,29.11,NNW,329,10.0,12.0,71,0.00,,,0.01,Wunderground v.1.15,2013-03-06 12:31:00,
2013-03-06 07:36:00,34.0,25.6,29.11,NW,313,11.0,12.0,71,0.00,,,0.01,Wunderground v.1.15,2013-03-06 12:36:00,
2013-03-06 07:41:00,34.0,25.6,29.11,WNW,292,9.0,9.0,71,0.00,,,0.01,Wunderground v.1.15,2013-03-06 12:41:00,
2013-03-06 07:46:00,34.0,25.9,29.12,NW,316,6.0,9.0,72,0.00,,,0.01,Wunderground v.1.15,2013-03-06 12:46:00,
2013-03-06 07:51:00,34.0,25.9,29.12,WNW,284,6.0,8.0,72,0.00,,,0.01,Wunderground v.1.15,2013-03-06 12:51:00,
2013-03-06 07:56:00,34.0,25.9,29.12,NW,311,6.0,8.0,72,0.00,,,0.01,Wunderground v.1.15,2013-03-06 12:56:00,
2013-03-06 08:02:00,34.0,25.6,29.13,NW,317,5.0,5.0,71,0.00,,,0.01,Wunderground v.1.15,2013-03-06 13:02:00,
2013-03-06 08:11:00,34.0,26.3,29.14,NW,321,5.0,6.0,73,0.00,,,0.01,Wunderground v.1.15,2013-03-06 13:11:00,
2013-03-06 08:18:00,33.9,26.0,29.15,WNW,297,1.0,9.0,73,0.00,,,0.01,weatherlink.com 1.10,2013-03-06 13:18:00,
2013-03-06 08:26:00,33.8,26.7,29.15,North,5,2.0,3.0,75,0.00,,,0.01,Wunderground v.1.15,2013-03-06 13:26:00,
2013-03-06 08:31:00,33.9,27.1,29.15,West,275,3.0,7.0,76,0.00,,,0.01,Wunderground v.1.15,2013-03-06 13:31:00,
2013-03-06 08:36:00,34.0,26.9,29.14,North,360,5.0,7.0,75,0.00,,,0.01,Wunderground v.1.15,2013-03-06 13:36:00,
2013-03-06 08:41:00,34.1,27.0,29.15,NW,317,5.0,5.0,75,0.00,,,0.01,Wunderground v.1.15,2013-03-06 13:41:00,
2013-03-06 08:46:00,34.2,27.1,29.15,NNE,19,4.0,5.0,75,0.00,,,0.01,Wunderground v.1.15,2013-03-06 13:46:00,
2013-03-06 08:51:00,34.2,26.8,29.16,NW,306,3.0,3.0,74,0.00,,,0.01,Wunderground v.1.15,2013-03-06 13:51:00,
2013-03-06 08:56:00,34.3,26.5,29.16,West,265,4.0,7.0,73,0.00,,,0.01,Wunderground v.1.15,2013-03-06 13:56:00,
2013-03-06 09:02:00,34.3,26.9,29.16,North,360,4.0,4.0,74,0.00,,,0.01,Wunderground v.1.15,2013-03-06 14:02:00,
2013-03-06 09:11:00,34.7,26.9,29.16,WNW,302,2.0,4.0,73,0.00,,,0.01,Wunderground v.1.15,2013-03-06 14:11:00,
2013-03-06 09:16:00,34.8,27.0,29.17,West,278,3.0,8.0,73,0.00,,,0.01,Wunderground v.1.15,2013-03-06 14:16:00,
2013-03-06 09:26:00,34.9,26.4,29.17,North,360,7.0,8.0,71,0.00,,,0.01,Wunderground v.1.15,2013-03-06 14:26:00,
2013-03-06 09:31:00,34.9,26.8,29.17,West,271,6.0,6.0,72,0.00,,,0.01,Wunderground v.1.15,2013-03-06 14:31:00,
2013-03-06 09:36:00,34.9,26.8,29.17,NW,324,4.0,6.0,72,0.00,,,0.01,Wunderground v.1.15,2013-03-06 14:36:00,
2013-03-06 09:41:00,35.0,26.9,29.17,SW,233,3.0,3.0,72,0.00,,,0.01,Wunderground v.1.15,2013-03-06 14:41:00,
2013-03-06 09:46:00,34.9,26.4,29.18,NNW,329,5.0,12.0,71,0.00,,,0.01,Wunderground v.1.15,2013-03-06 14:46:00,
2013-03-06 09:51:00,34.9,26.8,29.18,West,275,5.0,6.0,72,0.00,,,0.01,Wunderground v.1.15,2013-03-06 14:51:00,
2013-03-06 09:56:00,34.9,26.8,29.18,NW,321,6.0,6.0,72,0.00,,,0.01,Wunderground v.1.15,2013-03-06 14:56:00,
2013-03-06 10:02:00,35.1,27.0,29.18,North,360,7.0,7.0,72,0.00,,,0.01,Wunderground v.1.15,2013-03-06 15:02:00,
2013-03-06 10:11:00,35.6,27.5,29.19,NNW,345,6.0,6.0,72,0.00,,,0.01,Wunderground v.1.15,2013-03-06 15:11:00,
2013-03-06 10:16:00,35.7,26.9,29.19,North,355,7.0,7.0,70,0.00,,,0.01,Wunderground v.1.15,2013-03-06 15:16:00,
2013-03-06 10:21:00,35.7,27.2,29.19,NW,313,8.0,9.0,71,0.00,,,0.01,Wunderground v.1.15,2013-03-06 15:21:00,
2013-03-06 10:31:00,35.7,27.6,29.19,NNW,346,8.0,8.0,72,0.00,,,0.01,Wunderground v.1.15,2013-03-06 15:31:00,
2013-03-06 10:36:00,35.6,27.1,29.19,NW,315,7.0,8.0,71,0.00,,,0.01,Wunderground v.1.15,2013-03-06 15:36:00,
2013-03-06 10:41:00,35.6,27.1,29.20,NW,312,8.0,10.0,71,0.00,,,0.01,Wunderground v.1.15,2013-03-06 15:41:00,
2013-03-06 10:49:00,35.4,27.0,29.20,NW,316,9.0,23.0,70,0.00,,,0.01,weatherlink.com 1.10,2013-03-06 15:49:00,
2013-03-06 10:56:00,35.3,26.8,29.21,North,360,9.0,9.0,71,0.00,,,0.01,Wunderground v.1.15,2013-03-06 15:56:00,
2013-03-06 11:02:00,35.2,26.7,29.21,NNW,337,8.0,8.0,71,0.00,,,0.01,Wunderground v.1.15,2013-03-06 16:02:00,
2013-03-06 11:11:00,35.2,26.7,29.21,NNW,344,5.0,5.0,71,0.00,,,0.01,Wunderground v.1.15,2013-03-06 16:11:00,
2013-03-06 11:16:00,35.2,27.1,29.22,NNW,339,6.0,6.0,72,0.00,,,0.01,Wunderground v.1.15,2013-03-06 16:16:00,
2013-03-06 11:21:00,35.2,27.1,29.22,WSW,252,5.0,5.0,72,0.00,,,0.01,Wunderground v.1.15,2013-03-06 16:21:00,
2013-03-06 11:26:00,35.3,27.2,29.22,WNW,298,5.0,5.0,72,0.00,,,0.01,Wunderground v.1.15,2013-03-06 16:26:00,
2013-03-06 11:41:00,35.6,27.8,29.22,North,355,4.0,4.0,73,0.00,,,0.01,Wunderground v.1.15,2013-03-06 16:41:00,
2013-03-06 11:49:00,35.9,28.0,29.22,North,360,4.0,13.0,72,0.00,,,0.01,weatherlink.com 1.10,2013-03-06 16:49:00,
2013-03-06 11:56:00,36.4,28.6,29.22,NW,317,6.0,6.0,73,0.00,,,0.01,Wunderground v.1.15,2013-03-06 16:56:00,
2013-03-06 12:02:00,36.6,28.8,29.22,NW,324,6.0,6.0,73,0.00,,,0.01,Wunderground v.1.15,2013-03-06 17:02:00,
2013-03-06 12:11:00,36.6,28.1,29.22,North,360,8.0,9.0,71,0.00,,,0.01,Wunderground v.1.15,2013-03-06 17:11:00,
2013-03-06 12:16:00,36.5,28.3,29.23,NW,318,8.0,9.0,72,0.00,,,0.01,Wunderground v.1.15,2013-03-06 17:16:00,
2013-03-06 12:21:00,36.6,28.4,29.23,NW,318,6.0,6.0,72,0.00,,,0.01,Wunderground v.1.15,2013-03-06 17:21:00,
2013-03-06 12:26:00,36.7,28.5,29.23,NNW,336,5.0,8.0,72,0.00,,,0.01,Wunderground v.1.15,2013-03-06 17:26:00,
2013-03-06 12:34:00,36.8,28.0,29.23,North,360,9.0,16.0,71,0.00,,,0.01,weatherlink.com 1.10,2013-03-06 17:34:00,
2013-03-06 12:41:00,36.8,28.3,29.23,North,360,8.0,16.0,71,0.00,,,0.01,Wunderground v.1.15,2013-03-06 17:41:00,
2013-03-06 12:46:00,36.8,28.3,29.23,NNW,333,9.0,16.0,71,0.00,,,0.01,Wunderground v.1.15,2013-03-06 17:46:00,
2013-03-06 12:51:00,36.6,28.4,29.23,NNW,335,8.0,8.0,72,0.00,,,0.01,Wunderground v.1.15,2013-03-06 17:51:00,
2013-03-06 12:56:00,36.7,28.5,29.23,North,360,6.0,8.0,72,0.00,,,0.01,Wunderground v.1.15,2013-03-06 17:56:00,
2013-03-06 13:02:00,36.8,28.6,29.23,NNW,346,6.0,6.0,72,0.00,,,0.01,Wunderground v.1.15,2013-03-06 18:02:00,
2013-03-06 13:11:00,37.5,29.3,29.23,NW,315,3.0,6.0,72,0.00,,,0.01,Wunderground v.1.15,2013-03-06 18:11:00,
2013-03-06 13:16:00,37.8,29.2,29.23,NNW,341,5.0,10.0,71,0.00,,,0.01,Wunderground v.1.15,2013-03-06 18:16:00,
2013-03-06 13:21:00,37.9,29.0,29.23,NNW,333,7.0,7.0,70,0.00,,,0.01,Wunderground v.1.15,2013-03-06 18:21:00,
2013-03-06 13:31:00,38.0,29.4,29.24,NW,324,6.0,7.0,71,0.00,,,0.01,Wunderground v.1.15,2013-03-06 18:31:00,
2013-03-06 13:36:00,38.2,30.0,29.23,North,355,6.0,7.0,72,0.00,,,0.01,Wunderground v.1.15,2013-03-06 18:36:00,
2013-03-06 13:41:00,38.7,30.1,29.23,WNW,294,6.0,6.0,71,0.00,,,0.01,Wunderground v.1.15,2013-03-06 18:41:00,
2013-03-06 13:46:00,39.1,30.1,29.23,NW,317,6.0,6.0,70,0.00,,,0.01,Wunderground v.1.15,2013-03-06 18:46:00,
2013-03-06 13:51:00,39.3,30.3,29.23,North,5,7.0,7.0,70,0.00,,,0.01,Wunderground v.1.15,2013-03-06 18:51:00,
2013-03-06 14:02:00,39.6,29.9,29.23,North,360,5.0,5.0,68,0.00,,,0.01,Wunderground v.1.15,2013-03-06 19:02:00,
2013-03-06 14:11:00,40.6,30.1,29.23,NNW,348,7.0,7.0,66,0.00,,,0.01,Wunderground v.1.15,2013-03-06 19:11:00,
2013-03-06 14:20:00,40.1,30.0,29.23,NNE,14,10.0,17.0,67,0.00,,,0.01,weatherlink.com 1.10,2013-03-06 19:20:00,
2013-03-06 14:26:00,40.1,30.0,29.23,NNE,17,7.0,8.0,67,0.00,,,0.01,Wunderground v.1.15,2013-03-06 19:26:00,
2013-03-06 14:35:00,40.2,30.0,29.23,North,9,14.0,18.0,66,0.00,,,0.01,weatherlink.com 1.10,2013-03-06 19:35:00,
2013-03-06 14:41:00,39.6,29.9,29.24,North,360,9.0,9.0,68,0.00,,,0.01,Wunderground v.1.15,2013-03-06 19:41:00,
2013-03-06 14:46:00,39.7,29.3,29.24,WNW,283,8.0,9.0,66,0.00,,,0.01,Wunderground v.1.15,2013-03-06 19:46:00,
2013-03-06 14:56:00,40.8,30.7,29.24,North,355,10.0,15.0,67,0.00,,,0.01,Wunderground v.1.15,2013-03-06 19:56:00,
2013-03-06 15:02:00,41.9,31.4,29.24,NNW,336,9.0,9.0,66,0.00,,,0.01,Wunderground v.1.15,2013-03-06 20:02:00,
2013-03-06 15:11:00,43.1,31.4,29.24,NNW,328,8.0,10.0,63,0.00,,,0.01,Wunderground v.1.15,2013-03-06 20:11:00,
2013-03-06 15:16:00,43.6,31.0,29.24,NW,320,8.0,11.0,61,0.00,,,0.01,Wunderground v.1.15,2013-03-06 20:16:00,
2013-03-06 15:26:00,43.4,31.2,29.24,NNW,348,9.0,9.0,62,0.00,,,0.01,Wunderground v.1.15,2013-03-06 20:26:00,
2013-03-06 15:31:00,43.4,31.2,29.24,NNW,342,7.0,7.0,62,0.00,,,0.01,Wunderground v.1.15,2013-03-06 20:31:00,
2013-03-06 15:36:00,43.2,30.6,29.24,North,360,7.0,15.0,61,0.00,,,0.01,Wunderground v.1.15,2013-03-06 20:36:00,
2013-03-06 15:41:00,42.6,30.9,29.25,NW,324,8.0,14.0,63,0.00,,,0.01,Wunderground v.1.15,2013-03-06 20:41:00,
2013-03-06 15:50:00,41.5,29.4,29.25,NE,44,7.0,7.0,62,0.00,,,0.01,Wunderground v.1.15,2013-03-06 20:50:00,
2013-03-06 15:55:00,41.4,29.3,29.25,NNE,29,7.0,7.0,62,0.00,,,0.01,Wunderground v.1.15,2013-03-06 20:55:00,
2013-03-06 16:00:00,41.5,29.4,29.25,WNW,290,8.0,8.0,62,0.00,,,0.01,Wunderground v.1.15,2013-03-06 21:00:00,
2013-03-06 16:06:00,41.7,29.0,29.26,North,349,8.0,16.0,62,0.00,,,0.01,weatherlink.com 1.10,2013-03-06 21:06:00,
2013-03-06 16:15:00,41.5,29.4,29.26,NNW,338,8.0,11.0,62,0.00,,,0.01,Wunderground v.1.15,2013-03-06 21:15:00,
2013-03-06 16:20:00,41.0,29.0,29.26,NNW,344,6.0,11.0,62,0.00,,,0.01,Wunderground v.1.15,2013-03-06 21:20:00,
2013-03-06 16:25:00,40.5,28.9,29.27,North,11,7.0,15.0,63,0.00,,,0.01,Wunderground v.1.15,2013-03-06 21:25:00,
2013-03-06 16:35:00,41.1,30.2,29.27,NW,325,7.0,12.0,65,0.00,,,0.01,Wunderground v.1.15,2013-03-06 21:35:00,
2013-03-06 16:40:00,41.1,29.5,29.27,NE,42,6.0,6.0,63,0.00,,,0.01,Wunderground v.1.15,2013-03-06 21:40:00,
2013-03-06 16:45:00,40.8,29.6,29.27,WNW,290,7.0,8.0,64,0.00,,,0.01,Wunderground v.1.15,2013-03-06 21:45:00,
2013-03-06 16:50:00,40.6,29.4,29.27,North,355,7.0,7.0,64,0.00,,,0.01,Wunderground v.1.15,2013-03-06 21:50:00,
2013-03-06 16:55:00,40.3,29.1,29.27,NNW,342,7.0,19.0,64,0.00,,,0.01,Wunderground v.1.15,2013-03-06 21:55:00,
2013-03-06 17:00:00,40.3,29.5,29.27,ENE,68,6.0,6.0,65,0.00,,,0.01,Wunderground v.1.15,2013-03-06 22:00:00,
2013-03-06 17:06:00,40.2,29.0,29.28,NNW,339,5.0,13.0,65,0.00,,,0.01,weatherlink.com 1.10,2013-03-06 22:06:00,
2013-03-06 17:15:00,39.9,29.5,29.28,NNE,19,5.0,8.0,66,0.00,,,0.01,Wunderground v.1.15,2013-03-06 22:15:00,
2013-03-06 17:20:00,39.7,29.3,29.28,NNW,329,6.0,6.0,66,0.00,,,0.01,Wunderground v.1.15,2013-03-06 22:20:00,
2013-03-06 17:25:00,39.6,29.2,29.28,NW,315,6.0,6.0,66,0.00,,,0.01,Wunderground v.1.15,2013-03-06 22:25:00,
2013-03-06 17:30:00,39.5,29.4,29.28,North,360,5.0,5.0,67,0.00,,,0.01,Wunderground v.1.15,2013-03-06 22:30:00,
2013-03-06 17:35:00,39.4,29.3,29.28,NW,321,5.0,6.0,67,0.00,,,0.01,Wunderground v.1.15,2013-03-06 22:35:00,
2013-03-06 17:40:00,39.2,29.2,29.28,NNW,332,5.0,18.0,67,0.00,,,0.01,Wunderground v.1.15,2013-03-06 22:40:00,
2013-03-06 17:50:00,39.0,29.0,29.28,North,360,4.0,18.0,67,0.00,,,0.01,Wunderground v.1.15,2013-03-06 22:50:00,
2013-03-06 17:55:00,38.9,28.9,29.29,North,355,4.0,18.0,67,0.00,,,0.01,Wunderground v.1.15,2013-03-06 22:55:00,
2013-03-06 18:00:00,38.8,28.8,29.29,NNW,343,6.0,6.0,67,0.00,,,0.01,Wunderground v.1.15,2013-03-06 23:00:00,
2013-03-06 18:06:00,38.6,28.0,29.29,NNW,348,7.0,15.0,67,0.00,,,0.01,weatherlink.com 1.10,2013-03-06 23:06:00,
2013-03-06 18:15:00,38.4,28.8,29.29,NW,317,5.0,5.0,68,0.00,,,0.01,Wunderground v.1.15,2013-03-06 23:15:00,
2013-03-06 18:21:00,38.3,29.0,29.29,WNW,301,7.0,12.0,68,0.00,,,0.01,weatherlink.com 1.10,2013-03-06 23:21:00,
2013-03-06 18:30:00,38.2,28.6,29.30,NW,317,5.0,5.0,68,0.00,,,0.01,Wunderground v.1.15,2013-03-06 23:30:00,
2013-03-06 18:35:00,38.2,28.6,29.30,NNW,338,5.0,13.0,68,0.00,,,0.01,Wunderground v.1.15,2013-03-06 23:35:00,
2013-03-06 18:40:00,38.0,28.4,29.30,NW,309,6.0,6.0,68,0.00,,,0.01,Wunderground v.1.15,2013-03-06 23:40:00,
2013-03-06 18:45:00,38.0,28.4,29.30,North,355,6.0,13.0,68,0.00,,,0.01,Wunderground v.1.15,2013-03-06 23:45:00,
2013-03-06 18:50:00,38.0,28.7,29.31,NNW,346,5.0,13.0,69,0.00,,,0.01,Wunderground v.1.15,2013-03-06 23:50:00,
2013-03-06 18:55:00,37.9,28.6,29.31,NNW,330,5.0,13.0,69,0.00,,,0.01,Wunderground v.1.15,2013-03-06 23:55:00,
2013-03-06 19:00:00,37.9,29.0,29.31,NNW,348,5.0,7.0,70,0.00,,,0.01,Wunderground v.1.15,2013-03-07 00:00:00,
2013-03-06 19:06:00,37.8,28.0,29.31,NNW,338,6.0,12.0,69,0.00,,,0.01,weatherlink.com 1.10,2013-03-07 00:06:00,
2013-03-06 19:15:00,37.6,28.3,29.31,NW,311,6.0,6.0,69,0.00,,,0.01,Wunderground v.1.15,2013-03-07 00:15:00,
2013-03-06 19:20:00,37.5,28.2,29.32,NNW,333,5.0,5.0,69,0.00,,,0.01,Wunderground v.1.15,2013-03-07 00:20:00,
2013-03-06 19:30:00,37.4,28.2,29.31,NW,324,5.0,5.0,69,0.00,,,0.01,Wunderground v.1.15,2013-03-07 00:30:00,
2013-03-06 19:35:00,37.3,28.1,29.31,North,360,5.0,9.0,69,0.00,,,0.01,Wunderground v.1.15,2013-03-07 00:35:00,
2013-03-06 19:40:00,37.2,28.0,29.31,NNW,330,5.0,12.0,69,0.00,,,0.01,Wunderground v.1.15,2013-03-07 00:40:00,
2013-03-06 19:45:00,37.1,28.2,29.31,NW,310,5.0,12.0,70,0.00,,,0.01,Wunderground v.1.15,2013-03-07 00:45:00,
2013-03-06 19:50:00,37.1,28.2,29.31,NNW,327,5.0,5.0,70,0.00,,,0.01,Wunderground v.1.15,2013-03-07 00:50:00,
2013-03-06 19:55:00,37.0,28.5,29.31,NNW,327,5.0,12.0,71,0.00,,,0.01,Wunderground v.1.15,2013-03-07 00:55:00,
2013-03-06 20:00:00,36.9,28.0,29.32,North,355,5.0,5.0,70,0.00,,,0.01,Wunderground v.1.15,2013-03-07 01:00:00,
2013-03-06 20:06:00,36.8,28.0,29.32,North,360,6.0,16.0,70,0.00,,,0.01,weatherlink.com 1.10,2013-03-07 01:06:00,
2013-03-06 20:15:00,36.7,28.2,29.32,NW,312,5.0,5.0,71,0.00,,,0.01,Wunderground v.1.15,2013-03-07 01:15:00,
2013-03-06 20:20:00,36.6,28.1,29.32,NNW,327,5.0,5.0,71,0.00,,,0.01,Wunderground v.1.15,2013-03-07 01:20:00,
2013-03-06 20:25:00,36.6,28.1,29.32,North,355,5.0,6.0,71,0.00,,,0.01,Wunderground v.1.15,2013-03-07 01:25:00,
2013-03-06 20:35:00,36.5,28.3,29.32,North,360,3.0,13.0,72,0.00,,,0.01,Wunderground v.1.15,2013-03-07 01:35:00,
2013-03-06 20:40:00,36.5,28.3,29.32,NW,306,4.0,13.0,72,0.00,,,0.01,Wunderground v.1.15,2013-03-07 01:40:00,
2013-03-06 20:45:00,36.4,28.2,29.32,WNW,303,5.0,13.0,72,0.00,,,0.01,Wunderground v.1.15,2013-03-07 01:45:00,
2013-03-06 20:50:00,36.4,28.2,29.32,North,5,5.0,13.0,72,0.00,,,0.01,Wunderground v.1.15,2013-03-07 01:50:00,
2013-03-06 20:55:00,36.4,28.2,29.32,North,360,4.0,13.0,72,0.00,,,0.01,Wunderground v.1.15,2013-03-07 01:55:00,
2013-03-06 21:00:00,36.4,28.2,29.32,North,355,4.0,4.0,72,0.00,,,0.01,Wunderground v.1.15,2013-03-07 02:00:00,
2013-03-06 21:06:00,36.3,28.0,29.32,NW,320,2.0,12.0,72,0.00,,,0.01,weatherlink.com 1.10,2013-03-07 02:06:00,
2013-03-06 21:15:00,36.3,28.5,29.32,NE,53,4.0,4.0,73,0.00,,,0.01,Wunderground v.1.15,2013-03-07 02:15:00,
2013-03-06 21:20:00,36.2,28.4,29.32,NNW,336,5.0,5.0,73,0.00,,,0.01,Wunderground v.1.15,2013-03-07 02:20:00,
2013-03-06 21:25:00,36.1,28.3,29.32,NNW,330,4.0,5.0,73,0.00,,,0.01,Wunderground v.1.15,2013-03-07 02:25:00,
2013-03-06 21:30:00,36.1,28.3,29.32,NW,313,5.0,6.0,73,0.00,,,0.01,Wunderground v.1.15,2013-03-07 02:30:00,
2013-03-06 21:36:00,36.0,28.0,29.32,NNW,341,5.0,10.0,73,0.00,,,0.01,weatherlink.com 1.10,2013-03-07 02:36:00,
2013-03-06 21:45:00,36.0,28.5,29.32,NNW,347,4.0,16.0,74,0.00,,,0.01,Wunderground v.1.15,2013-03-07 02:45:00,
2013-03-06 21:50:00,36.0,28.5,29.32,North,9,3.0,16.0,74,0.00,,,0.01,Wunderground v.1.15,2013-03-07 02:50:00,
2013-03-06 21:55:00,36.0,28.5,29.32,NW,323,4.0,16.0,74,0.00,,,0.01,Wunderground v.1.15,2013-03-07 02:55:00,
2013-03-06 22:00:00,35.9,28.4,29.32,NNW,348,4.0,4.0,74,0.00,,,0.01,Wunderground v.1.15,2013-03-07 03:00:00,
2013-03-06 22:07:00,35.9,28.0,29.32,NW,323,5.0,12.0,73,0.00,,,0.01,weatherlink.com 1.10,2013-03-07 03:07:00,
2013-03-06 22:15:00,35.9,28.1,29.32,WNW,300,5.0,5.0,73,0.00,,,0.01,Wunderground v.1.15,2013-03-07 03:15:00,
2013-03-06 22:21:00,35.8,28.0,29.32,NNW,328,4.0,14.0,73,0.00,,,0.01,weatherlink.com 1.10,2013-03-07 03:21:00,
2013-03-06 22:30:00,35.7,28.2,29.32,NNW,327,5.0,5.0,74,0.00,,,0.01,Wunderground v.1.15,2013-03-07 03:30:00,
2013-03-06 22:35:00,35.6,28.1,29.32,North,355,4.0,13.0,74,0.00,,,0.01,Wunderground v.1.15,2013-03-07 03:35:00,
2013-03-06 22:45:00,35.5,28.0,29.32,NNW,336,4.0,7.0,74,0.00,,,0.01,Wunderground v.1.15,2013-03-07 03:45:00,
2013-03-06 22:50:00,35.4,27.9,29.31,North,355,4.0,4.0,74,0.00,,,0.01,Wunderground v.1.15,2013-03-07 03:50:00,
2013-03-06 22:55:00,35.3,27.8,29.31,NNW,336,4.0,13.0,74,0.00,,,0.01,Wunderground v.1.15,2013-03-07 03:55:00,
2013-03-06 23:00:00,35.3,28.2,29.32,NNW,338,4.0,4.0,75,0.00,,,0.01,Wunderground v.1.15,2013-03-07 04:00:00,
2013-03-06 23:07:00,35.3,28.0,29.32,NW,321,5.0,7.0,75,0.00,,,0.01,weatherlink.com 1.10,2013-03-07 04:07:00,
2013-03-06 23:15:00,35.2,28.1,29.31,NNW,348,4.0,4.0,75,0.00,,,0.01,Wunderground v.1.15,2013-03-07 04:15:00,
2013-03-06 23:20:00,35.2,28.4,29.32,NNE,14,4.0,4.0,76,0.00,,,0.01,Wunderground v.1.15,2013-03-07 04:20:00,
2013-03-06 23:30:00,35.2,28.4,29.31,NW,324,3.0,3.0,76,0.00,,,0.01,Wunderground v.1.15,2013-03-07 04:30:00,
2013-03-06 23:37:00,35.1,28.0,29.32,NE,46,2.0,6.0,76,0.00,,,0.01,weatherlink.com 1.10,2013-03-07 04:37:00,
2013-03-06 23:45:00,35.1,28.3,29.30,NNW,344,4.0,14.0,76,0.00,,,0.01,Wunderground v.1.15,2013-03-07 04:45:00,
2013-03-06 23:50:00,35.1,28.3,29.31,NNE,27,4.0,14.0,76,0.00,,,0.01,Wunderground v.1.15,2013-03-07 04:50:00,
2013-03-06 23:55:00,35.0,28.2,29.31,NW,315,3.0,14.0,76,0.00,,,0.01,Wunderground v.1.15,2013-03-07 04:55:00,